| time (UTC) | temp C | wind direction | speed KPH | gust KPH | rain 1hr cm | rain 24hr cm | rain mn cm | humidity % | barometer mb |
| 20260502185634 | 20 | 360 | 8.0 | 16.1 | 0.00 | 0.00 | 0.00 | 21 | 1018.3 |
| 20260502184618 | 20 | 360 | 4.8 | 14.5 | 0.00 | 0.00 | 0.00 | 25 | 1018.3 |
| 20260502183627 | 20 | 360 | 8.0 | 19.3 | 0.00 | 0.00 | 0.00 | 24 | 1018.5 |
| 20260502182636 | 20 | 360 | 11.3 | 16.1 | 0.00 | 0.00 | 0.00 | 24 | 1018.6 |
| 20260502181626 | 20 | 360 | 8.0 | 14.5 | 0.00 | 0.00 | 0.00 | 25 | 1018.6 |
| 20260502180613 | 20 | 360 | 6.4 | 16.1 | 0.00 | 0.00 | 0.00 | 27 | 1018.4 |
| 20260502163643 | 18 | 360 | 4.8 | 9.7 | 0.00 | 0.00 | 0.00 | 28 | 1019.0 |
| 20260502162627 | 17 | 39 | 1.6 | 4.8 | 0.00 | 0.00 | 0.00 | 28 | 1019.0 |
| 20260502161613 | 17 | 40 | 1.6 | 6.4 | 0.00 | 0.00 | 0.00 | 29 | 1019.0 |
| 20260502160646 | 17 | 360 | 1.6 | 6.4 | 0.00 | 0.00 | 0.00 | 31 | 1019.0 |
| 20260502151632 | 15 | 360 | 4.8 | 9.7 | 0.00 | 0.00 | 0.00 | 35 | 1019.1 |
| 20260502150620 | 14 | 360 | 3.2 | 6.4 | 0.00 | 0.00 | 0.00 | 35 | 1019.0 |
| 20260502130613 | 7 | 360 | 0.0 | 0.0 | 0.00 | 0.00 | 0.00 | 56 | 1018.6 |
| 20260502123611 | 6 | 360 | 1.6 | 3.2 | 0.00 | 0.00 | 0.00 | 58 | 1018.5 |
| 20260502122619 | 7 | 360 | 1.6 | 3.2 | 0.00 | 0.00 | 0.00 | 57 | 1018.4 |
| 20260502121624 | 7 | 360 | 0.0 | 0.0 | 0.00 | 0.00 | 0.00 | 52 | 1018.3 |
| 20260502120617 | 7 | 360 | 0.0 | 3.2 | 0.00 | 0.00 | 0.00 | 53 | 1018.3 |
| 20260502115637 | 6 | 360 | 1.6 | 4.8 | 0.00 | 0.00 | 0.00 | 55 | 1018.3 |
| 20260502114621 | 6 | 360 | 0.0 | 1.6 | 0.00 | 0.00 | 0.00 | 62 | 1018.3 |
| 20260502113629 | 5 | 221 | 0.0 | 0.0 | 0.00 | 0.00 | 0.00 | 64 | 1018.3 |
| 20260502112639 | 5 | 222 | 0.0 | 3.2 | 0.00 | 0.00 | 0.00 | 66 | 1018.4 |
| 20260502111631 | 5 | 360 | 0.0 | 0.0 | 0.00 | 0.00 | 0.00 | 67 | 1018.4 |
| 20260502110617 | 5 | 360 | 0.0 | 0.0 | 0.00 | 0.00 | 0.00 | 66 | 1018.4 |
| 20260502105617 | 5 | 360 | 0.0 | 0.0 | 0.00 | 0.00 | 0.00 | 66 | 1018.5 |
| 20260502104648 | 6 | 360 | 0.0 | 0.0 | 0.00 | 0.00 | 0.00 | 64 | 1018.4 |
| 20260502103615 | 6 | 360 | 0.0 | 0.0 | 0.00 | 0.00 | 0.00 | 64 | 1018.5 |
| 20260502102641 | 6 | 360 | 0.0 | 1.6 | 0.00 | 0.00 | 0.00 | 64 | 1018.5 |
| 20260502101628 | 6 | 360 | 0.0 | 0.0 | 0.00 | 0.00 | 0.00 | 63 | 1018.5 |
| 20260502100631 | 6 | 360 | 0.0 | 3.2 | 0.00 | 0.00 | 0.00 | 64 | 1018.4 |
| 20260502090628 | 7 | 360 | 0.0 | 3.2 | 0.00 | 0.00 | 0.00 | 58 | 1018.4 |
| 20260502070624 | 8 | 360 | 1.6 | 3.2 | 0.00 | 0.00 | 0.00 | 58 | 1018.1 |
| 20260502065627 | 8 | 360 | 0.0 | 0.0 | 0.00 | 0.00 | 0.00 | 60 | 1018.1 |
| 20260502064614 | 8 | 360 | 0.0 | 3.2 | 0.00 | 0.00 | 0.00 | 59 | 1018.1 |
| 20260502063641 | 9 | 360 | 0.0 | 3.2 | 0.00 | 0.00 | 0.00 | 58 | 1018.1 |
| 20260502062624 | 9 | 360 | 3.2 | 4.8 | 0.00 | 0.00 | 0.00 | 60 | 1018.1 |
| 20260502061617 | 10 | 360 | 0.0 | 3.2 | 0.00 | 0.00 | 0.00 | 60 | 1018.1 |
| 20260502060627 | 10 | 360 | 1.6 | 4.8 | 0.00 | 0.00 | 0.00 | 60 | 1018.0 |
| 20260502055646 | 10 | 360 | 4.8 | 9.7 | 0.00 | 0.00 | 0.00 | 60 | 1018.0 |
| 20260502054652 | 9 | 181 | 0.0 | 1.6 | 0.00 | 0.00 | 0.00 | 61 | 1017.9 |
| 20260502053619 | 10 | 181 | 1.6 | 3.2 | 0.00 | 0.00 | 0.00 | 60 | 1017.8 |
| 20260502052612 | 11 | 181 | 1.6 | 3.2 | 0.00 | 0.00 | 0.00 | 59 | 1017.9 |
| 20260502051622 | 10 | 181 | 0.0 | 1.6 | 0.00 | 0.00 | 0.00 | 60 | 1017.8 |
| 20260502050648 | 10 | 181 | 0.0 | 1.6 | 0.00 | 0.00 | 0.00 | 61 | 1017.9 |
| 20260502045627 | 10 | 181 | 0.0 | 4.8 | 0.00 | 0.00 | 0.00 | 63 | 1017.9 |
| 20260502044638 | 10 | 181 | 3.2 | 6.4 | 0.00 | 0.00 | 0.00 | 63 | 1017.8 |
| 20260502043626 | 10 | 360 | 0.0 | 4.8 | 0.00 | 0.00 | 0.00 | 63 | 1017.6 |
| 20260502042614 | 10 | 360 | 1.6 | 3.2 | 0.00 | 0.00 | 0.00 | 62 | 1017.6 |
| 20260502041621 | 11 | 360 | 0.0 | 3.2 | 0.00 | 0.00 | 0.00 | 59 | 1017.6 |
| 20260502040647 | 11 | 259 | 1.6 | 4.8 | 0.00 | 0.00 | 0.00 | 61 | 1017.5 |
| 20260502035644 | 11 | 360 | 0.0 | 3.2 | 0.00 | 0.00 | 0.00 | 59 | 1017.4 |
| 20260502034651 | 11 | 360 | 0.0 | 0.0 | 0.00 | 0.00 | 0.00 | 57 | 1017.3 |
| 20260502033636 | 12 | 360 | 0.0 | 0.0 | 0.00 | 0.00 | 0.00 | 55 | 1017.2 |
| 20260502032623 | 12 | 259 | 0.0 | 1.6 | 0.00 | 0.00 | 0.00 | 52 | 1017.2 |
| 20260502031631 | 13 | 360 | 1.6 | 3.2 | 0.00 | 0.00 | 0.00 | 50 | 1017.0 |
| 20260502030624 | 13 | 360 | 1.6 | 3.2 | 0.00 | 0.00 | 0.00 | 47 | 1016.8 |
| 20260502025643 | 14 | 360 | 1.6 | 3.2 | 0.00 | 0.00 | 0.00 | 44 | 1016.7 |
| 20260502024630 | 15 | 360 | 0.0 | 3.2 | 0.00 | 0.00 | 0.00 | 45 | 1016.6 |
| 20260502023617 | 15 | 360 | 1.6 | 4.8 | 0.00 | 0.00 | 0.00 | 43 | 1016.5 |
| 20260502022627 | 16 | 360 | 0.0 | 4.8 | 0.00 | 0.00 | 0.00 | 42 | 1016.4 |
| 20260502021634 | 16 | 360 | 0.0 | 6.4 | 0.00 | 0.00 | 0.00 | 39 | 1016.4 |
| 20260502020632 | 17 | 360 | 1.6 | 4.8 | 0.00 | 0.00 | 0.00 | 37 | 1016.4 |
| 20260502015635 | 17 | 360 | 1.6 | 9.7 | 0.00 | 0.00 | 0.00 | 36 | 1016.4 |
| 20260502014623 | 18 | 360 | 1.6 | 6.4 | 0.00 | 0.00 | 0.00 | 35 | 1016.3 |
| 20260502013636 | 18 | 360 | 4.8 | 9.7 | 0.00 | 0.00 | 0.00 | 34 | 1016.2 |
| 20260502012646 | 18 | 360 | 4.8 | 12.9 | 0.00 | 0.00 | 0.00 | 35 | 1016.3 |
| 20260502011651 | 19 | 360 | 3.2 | 9.7 | 0.00 | 0.00 | 0.00 | 28 | 1016.2 |
| 20260502010630 | 20 | 360 | 6.4 | 16.1 | 0.00 | 0.00 | 0.00 | 28 | 1016.2 |
| 20260502005624 | 20 | 360 | 6.4 | 14.5 | 0.00 | 0.00 | 0.00 | 26 | 1016.2 |
| 20260502004628 | 20 | 360 | 9.7 | 16.1 | 0.00 | 0.00 | 0.00 | 22 | 1016.3 |
| 20260502003614 | 20 | 360 | 4.8 | 14.5 | 0.00 | 0.00 | 0.00 | 23 | 1016.3 |
| 20260502002620 | 20 | 360 | 3.2 | 14.5 | 0.00 | 0.00 | 0.00 | 22 | 1016.3 |
| 20260502001625 | 20 | 294 | 4.8 | 12.9 | 0.00 | 0.00 | 0.00 | 22 | 1016.3 |
| 20260502000618 | 20 | 360 | 8.0 | 16.1 | 0.00 | 0.00 | 0.00 | 22 | 1016.4 |
| 20260501235617 | 20 | 360 | 11.3 | 19.3 | 0.00 | 0.00 | 0.00 | 21 | 1016.4 |
| 20260501234621 | 20 | 360 | 8.0 | 20.9 | 0.00 | 0.00 | 0.00 | 22 | 1016.4 |
| 20260501233630 | 20 | 360 | 11.3 | 17.7 | 0.00 | 0.00 | 0.00 | 23 | 1016.5 |
| 20260501232618 | 20 | 301 | 6.4 | 16.1 | 0.00 | 0.00 | 0.00 | 24 | 1016.5 |
| 20260501231626 | 19 | 360 | 6.4 | 24.1 | 0.00 | 0.00 | 0.00 | 23 | 1016.6 |
| 20260501230631 | 19 | 360 | 12.9 | 22.5 | 0.00 | 0.00 | 0.00 | 24 | 1016.7 |
| 20260501225628 | 18 | 360 | 8.0 | 22.5 | 0.00 | 0.00 | 0.00 | 25 | 1016.7 |
| 20260501224617 | 19 | 328 | 16.1 | 24.1 | 0.00 | 0.00 | 0.00 | 24 | 1016.9 |
| 20260501223627 | 20 | 286 | 8.0 | 20.9 | 0.00 | 0.00 | 0.00 | 27 | 1016.9 |
| 20260501222652 | 19 | 360 | 8.0 | 20.9 | 0.00 | 0.00 | 0.00 | 26 | 1017.1 |
| 20260501221619 | 19 | 360 | 11.3 | 22.5 | 0.00 | 0.00 | 0.00 | 25 | 1017.2 |
| 20260501220627 | 20 | 360 | 8.0 | 20.9 | 0.00 | 0.00 | 0.00 | 25 | 1017.3 |
| 20260501215629 | 19 | 360 | 11.3 | 22.5 | 0.00 | 0.00 | 0.00 | 24 | 1017.3 |
| 20260501214618 | 19 | 360 | 9.7 | 22.5 | 0.00 | 0.00 | 0.00 | 25 | 1017.5 |
| 20260501213648 | 19 | 360 | 11.3 | 22.5 | 0.00 | 0.00 | 0.00 | 25 | 1017.5 |
| 20260501212615 | 19 | 360 | 8.0 | 20.9 | 0.00 | 0.00 | 0.00 | 26 | 1017.6 |
| 20260501211624 | 19 | 360 | 8.0 | 19.3 | 0.00 | 0.00 | 0.00 | 26 | 1017.7 |
| 20260501210649 | 19 | 360 | 8.0 | 24.1 | 0.00 | 0.00 | 0.00 | 26 | 1017.7 |
| 20260501205628 | 18 | 360 | 6.4 | 24.1 | 0.00 | 0.00 | 0.00 | 25 | 1017.9 |
| 20260501204612 | 19 | 310 | 9.7 | 20.9 | 0.00 | 0.00 | 0.00 | 26 | 1017.8 |
| 20260501203621 | 19 | 360 | 16.1 | 22.5 | 0.00 | 0.00 | 0.00 | 25 | 1017.9 |
| 20260501202616 | 19 | 360 | 9.7 | 25.7 | 0.00 | 0.00 | 0.00 | 25 | 1017.7 |
| 20260501201622 | 18 | 360 | 12.9 | 24.1 | 0.00 | 0.00 | 0.00 | 26 | 1017.7 |
| 20260501200618 | 18 | 360 | 8.0 | 20.9 | 0.00 | 0.00 | 0.00 | 25 | 1017.9 |
| 20260501195629 | 18 | 360 | 9.7 | 17.7 | 0.00 | 0.00 | 0.00 | 22 | 1017.8 |
| 20260501194618 | 18 | 360 | 8.0 | 16.1 | 0.00 | 0.00 | 0.00 | 19 | 1017.9 |
| 20260501193625 | 18 | 349 | 8.0 | 17.7 | 0.00 | 0.00 | 0.00 | 19 | 1018.0 |
| 20260501192615 | 18 | 360 | 4.8 | 17.7 | 0.00 | 0.00 | 0.00 | 20 | 1018.2 |
| 20260501191626 | 18 | 78 | 4.8 | 12.9 | 0.00 | 0.00 | 0.00 | 20 | 1018.2 |
| 20260501190625 | 17 | 14 | 4.8 | 22.5 | 0.00 | 0.00 | 0.00 | 21 | 1018.3 |